sat.trackr.live / text

‹ back to catalog

STARLINK-36488

NORAD 67306 · 2026-002B

PAYLOAD ACTIVE UNKNOWN

§ Identity

Operator
Country
US
Launch date
2026-01-04
Launch site
AFETR
Launch vehicle
Mass (kg)
RCS (m²)

Purposes: comms

External: N2YO · Heavens-Above · Gunter

§ Orbital elements

Epoch: 2026-05-24T15:44:23.575488Z

Period
94.27 min
Inclination
43.0003°
Eccentricity
0.0002049
Mean motion
15.27598351 rev/d
Perigee alt
481.6 km
Apogee alt
484.4 km
Semi-major
6,861.1 km
B*
6.5895e-4
RAAN
256.5390°
Arg perigee
263.4567°
Mean anomaly
96.6052°
Rev number
2,269

§ Raw data

STARLINK-364881 67306U 26002B   26144.65582842  .00017925  00000+0  65895-3 0  99982 67306  43.0003 256.5390 0002049 263.4567  96.6052 15.27598351 22695

JSON: /api/v1/satellites/67306 · /tle

For live sub-satellite position, see the globe view (requires WebGL).

§ Visibility from observer

Set your observer location to see the next 7 days of passes ≥ 10°. The values pass through the URL so the page stays shareable.

No JS? Fill the form by hand. The geolocation button needs JavaScript.